sat.trackr.live / text

‹ back to catalog

STARLINK-37633

NORAD 69133 · 2026-110K

PAYLOAD ACTIVE UNKNOWN

§ Identity

Operator
Country
US
Launch date
2026-05-20
Launch site
AFWTR
Launch vehicle
Mass (kg)
RCS (m²)

Purposes: comms

External: N2YO · Heavens-Above · Gunter

§ Orbital elements

Epoch: 2026-09-18T19:02:13.864128Z

Period
93.91 min
Inclination
97.2820°
Eccentricity
0.0002704
Mean motion
15.33458161 rev/d
Perigee alt
463.7 km
Apogee alt
467.4 km
Semi-major
6,843.6 km
B*
5.5481e-4
RAAN
96.8609°
Arg perigee
98.0946°
Mean anomaly
262.0603°
Rev number
1,995

§ Raw data

STARLINK-376331 69133U 26110K   26261.79321602  .00017888  00000+0  55481-3 0  99962 69133  97.2820  96.8609 0002704  98.0946 262.0603 15.33458161 19959

JSON: /api/v1/satellites/69133 · /tle

For live sub-satellite position, see the globe view (requires WebGL).

§ Visibility from observer

Set your observer location to see the next 7 days of passes ≥ 10°. The values pass through the URL so the page stays shareable.

No JS? Fill the form by hand. The geolocation button needs JavaScript.